Starlink 33925

operational
NORAD ID: 63793 Int'l Des: 2025-091 Owner: SPXS Country: US Constellation: starlink
LEOCIRCULAR

About Starlink 33925

Description loading...

Live Position

Loading 3D Globe...

Upcoming Passes

Altitude History

Altitude vs Time

uPlot chart will show altitude changes over time

Two-Line Element Set

1 63793U 25091U 26034.94437301 .00026444 00000-0 96646-3 0 9995
2 63793 42.9985 242.8954 0001562 269.5661 90.5011 15.27599289 43853
Epoch: Feb 3, 2026 • Age: 14 hours

Current Status

Altitude 482.3 km
Velocity 7.63 km/s
Sub-Earth Point 14.49°N, 72.37°W
Launch Date May 2, 2025
Age 0.7 years
Type internet

Technical Details

Classification Payload
Mass 575.00 kg
Dry Mass 530.00 kg
Total Mass 575.00 kg
Length 0.30 m
Diameter 4.10 m
Span 29.00 m
Shape Box + pan
Manufacturer SPXS
Bus Type Starlink V2MO
Phase Status In Orbit
Owner/State SPXS/US

Large Constellations

Loading constellations...